"Datum/tijd (MET/MEZT)";"golfhoogte"
2024-03-14 15:00;61
2024-03-14 15:10;60
2024-03-14 15:20;62
2024-03-14 15:30;63
2024-03-14 15:40;62
2024-03-14 15:50;57
2024-03-14 16:00;54
2024-03-14 16:10;57
2024-03-14 16:20;57
2024-03-14 16:30;56
2024-03-14 16:40;58
2024-03-14 16:50;55
2024-03-14 17:00;52
2024-03-14 17:10;53
2024-03-14 17:20;53
2024-03-14 17:30;49
2024-03-14 17:40;47
2024-03-14 17:50;48
2024-03-14 18:00;48
2024-03-14 18:10;48
2024-03-14 18:20;47
2024-03-14 18:30;47
2024-03-14 18:40;45
2024-03-14 18:50;44
2024-03-14 19:00;48
2024-03-14 19:10;49
2024-03-14 19:20;48
2024-03-14 19:30;47
2024-03-14 19:40;47
2024-03-14 19:50;45
2024-03-14 20:00;47
2024-03-14 20:10;48
2024-03-14 20:20;46
2024-03-14 20:30;44
2024-03-14 20:40;43
2024-03-14 20:50;43
2024-03-14 21:00;45
2024-03-14 21:10;45
2024-03-14 21:20;43
2024-03-14 21:30;45
2024-03-14 21:40;45
2024-03-14 21:50;45
2024-03-14 22:00;45
2024-03-14 22:10;47
2024-03-14 22:20;46
2024-03-14 22:30;45
2024-03-14 22:40;46
2024-03-14 22:50;46
2024-03-14 23:00;49
2024-03-14 23:10;48
2024-03-14 23:20;49
2024-03-14 23:30;50
2024-03-14 23:40;49
2024-03-14 23:50;51
2024-03-15 00:00;55
2024-03-15 00:10;53
2024-03-15 00:20;50
2024-03-15 00:30;51
2024-03-15 00:40;55
2024-03-15 00:50;57
2024-03-15 01:00;58
2024-03-15 01:10;58
2024-03-15 01:20;57
2024-03-15 01:30;58
2024-03-15 01:40;61
2024-03-15 01:50;60
2024-03-15 02:00;62
2024-03-15 02:10;68
2024-03-15 02:20;70
2024-03-15 02:30;68
2024-03-15 02:40;71
2024-03-15 02:50;77
2024-03-15 03:00;81
2024-03-15 03:10;89
2024-03-15 03:20;89
2024-03-15 03:30;90
2024-03-15 03:40;98
2024-03-15 03:50;99
2024-03-15 04:00;95
2024-03-15 04:10;95
2024-03-15 04:20;104
2024-03-15 04:30;101
2024-03-15 04:40;96
2024-03-15 04:50;100
2024-03-15 05:00;107
2024-03-15 05:10;106
2024-03-15 05:20;97
2024-03-15 05:30;96
2024-03-15 05:40;99
2024-03-15 05:50;104
2024-03-15 06:00;106
2024-03-15 06:10;108
2024-03-15 06:20;105
2024-03-15 06:30;110
2024-03-15 06:40;111
2024-03-15 06:50;114
2024-03-15 07:00;115
2024-03-15 07:10;114
2024-03-15 07:20;117
2024-03-15 07:30;120
2024-03-15 07:40;125
2024-03-15 07:50;124
2024-03-15 08:00;128
2024-03-15 08:10;131
2024-03-15 08:20;123
2024-03-15 08:30;121
2024-03-15 08:40;122
2024-03-15 08:50;121
2024-03-15 09:00;120
2024-03-15 09:10;119
2024-03-15 09:20;119
2024-03-15 09:30;123
2024-03-15 09:40;129
2024-03-15 09:50;136
2024-03-15 10:00;138
2024-03-15 10:10;133
2024-03-15 10:20;136
2024-03-15 10:30;149
2024-03-15 10:40;146
2024-03-15 10:50;143
2024-03-15 11:00;149
2024-03-15 11:10;154
2024-03-15 11:20;156
2024-03-15 11:30;152
2024-03-15 11:40;153
2024-03-15 11:50;177
2024-03-15 12:00;151
2024-03-15 12:10;159
2024-03-15 12:20;163
2024-03-15 12:30;160
2024-03-15 12:40;160
2024-03-15 12:50;153
2024-03-15 13:00;158
2024-03-15 13:10;174
2024-03-15 13:20;169
2024-03-15 13:30;174
2024-03-15 13:40;178
2024-03-15 13:50;175
2024-03-15 14:00;173
2024-03-15 14:10;166
2024-03-15 14:20;175
2024-03-15 14:30;179
2024-03-15 14:40;167
2024-03-15 14:50;158
2024-03-15 15:00;170
2024-03-15 15:10;173
2024-03-15 15:20;166
2024-03-15 15:30;165
2024-03-15 15:40;172
2024-03-15 15:50;186
2024-03-15 16:00;186
2024-03-15 16:10;178
2024-03-15 16:20;167
2024-03-15 16:30;166
2024-03-15 16:40;183
2024-03-15 16:50;181
2024-03-15 17:00;175
2024-03-15 17:10;172
2024-03-15 17:20;171
2024-03-15 17:30;182
2024-03-15 17:40;189
2024-03-15 17:50;187
2024-03-15 18:00;171
2024-03-15 18:10;175
2024-03-15 18:20;182
2024-03-15 18:30;168
2024-03-15 18:40;169
2024-03-15 18:50;168
2024-03-15 19:00;170
2024-03-15 19:10;172
2024-03-15 19:20;169
2024-03-15 19:30;170
2024-03-15 19:40;162
2024-03-15 19:50;178
2024-03-15 20:00;187
2024-03-15 20:10;184
2024-03-15 20:20;193
2024-03-15 20:30;178
2024-03-15 20:40;169
2024-03-15 20:50;176
2024-03-15 21:00;172
2024-03-15 21:10;165
2024-03-15 21:20;157
2024-03-15 21:30;156
2024-03-15 21:40;153
2024-03-15 21:50;158
2024-03-15 22:00;163
2024-03-15 22:10;157
2024-03-15 22:20;156
2024-03-15 22:30;156
2024-03-15 22:40;144
2024-03-15 22:50;135
2024-03-15 23:00;141
2024-03-15 23:10;152
2024-03-15 23:20;150
2024-03-15 23:30;140
2024-03-15 23:40;143
2024-03-15 23:50;144
2024-03-16 00:00;135
2024-03-16 00:10;135
2024-03-16 00:20;137
2024-03-16 00:30;129
2024-03-16 00:40;126
2024-03-16 00:50;128
2024-03-16 01:00;128
2024-03-16 01:10;126
2024-03-16 01:20;127
2024-03-16 01:30;122
2024-03-16 01:40;123
2024-03-16 01:50;126
2024-03-16 02:00;125
2024-03-16 02:10;123
2024-03-16 02:20;125
2024-03-16 02:30;127
2024-03-16 02:40;121
2024-03-16 02:50;118
2024-03-16 03:00;124
2024-03-16 03:10;125
2024-03-16 03:20;119
2024-03-16 03:30;119
2024-03-16 03:40;124
2024-03-16 03:50;124
2024-03-16 04:00;123
2024-03-16 04:10;121
2024-03-16 04:20;116
2024-03-16 04:30;121
2024-03-16 04:40;123
2024-03-16 04:50;130
2024-03-16 05:00;130
2024-03-16 05:10;126
2024-03-16 05:20;132
2024-03-16 05:30;130
2024-03-16 05:40;129
2024-03-16 05:50;134
2024-03-16 06:00;139
2024-03-16 06:10;133
2024-03-16 06:20;124
2024-03-16 06:30;122
2024-03-16 06:40;118
2024-03-16 06:50;115
2024-03-16 07:00;116
2024-03-16 07:10;115
2024-03-16 07:20;117
2024-03-16 07:30;119
2024-03-16 07:40;111
2024-03-16 07:50;111
2024-03-16 08:00;113
2024-03-16 08:10;111
2024-03-16 08:20;110
2024-03-16 08:30;111
2024-03-16 08:40;111
2024-03-16 08:50;100
2024-03-16 09:00;102
2024-03-16 09:10;104
2024-03-16 09:20;100
2024-03-16 09:30;100
2024-03-16 09:40;100
2024-03-16 09:50;100
2024-03-16 10:00;98
2024-03-16 10:10;98
2024-03-16 10:20;92
2024-03-16 10:30;91
2024-03-16 10:40;90
2024-03-16 10:50;86
2024-03-16 11:00;91
2024-03-16 11:10;99
2024-03-16 11:20;97
2024-03-16 11:30;91
2024-03-16 11:40;89
2024-03-16 11:50;91
2024-03-16 12:00;92
2024-03-16 12:10;89
2024-03-16 12:20;88
2024-03-16 12:30;84
2024-03-16 12:40;82
2024-03-16 12:50;85
2024-03-16 13:00;86
2024-03-16 13:10;90
2024-03-16 13:20;88
2024-03-16 13:30;85
2024-03-16 13:40;88
2024-03-16 13:50;86
2024-03-16 14:00;83
2024-03-16 14:10;86
2024-03-16 14:20;84
2024-03-16 14:30;90
2024-03-16 14:40;95
2024-03-16 14:50;93
2024-03-16 15:00;90
2024-03-16 15:10;91
2024-03-16 15:20;93
2024-03-16 15:30;93
2024-03-16 15:40;93
2024-03-16 15:50;88
2024-03-16 16:00;91
2024-03-16 16:10;91
2024-03-16 16:20;89
2024-03-16 16:30;94
2024-03-16 16:40;97
2024-03-16 16:50;104
2024-03-16 17:00;103
2024-03-16 17:10;98
2024-03-16 17:20;104
2024-03-16 17:30;109
2024-03-16 17:40;110
2024-03-16 17:50;110
2024-03-16 18:00;111
2024-03-16 18:10;115
2024-03-16 18:20;114
2024-03-16 18:30;111
2024-03-16 18:40;119
2024-03-16 18:50;118
2024-03-16 19:00;114
2024-03-16 19:10;113
2024-03-16 19:20;109
2024-03-16 19:30;110
2024-03-16 19:40;116
2024-03-16 19:50;121
2024-03-16 20:00;113
2024-03-16 20:10;106
2024-03-16 20:20;112
2024-03-16 20:30;114
2024-03-16 20:40;108
2024-03-16 20:50;108
2024-03-16 21:00;111
2024-03-16 21:10;106
2024-03-16 21:20;95
2024-03-16 21:30;94
2024-03-16 21:40;100
2024-03-16 21:50;93
2024-03-16 22:00;85
2024-03-16 22:10;79
2024-03-16 22:20;80
2024-03-16 22:30;84
2024-03-16 22:40;80
2024-03-16 22:50;78
2024-03-16 23:00;79
2024-03-16 23:10;81
2024-03-16 23:20;85
2024-03-16 23:30;83
2024-03-16 23:40;82
2024-03-16 23:50;83
2024-03-17 00:00;86
2024-03-17 00:10;87
2024-03-17 00:20;86
2024-03-17 00:30;82
2024-03-17 00:40;84
2024-03-17 00:50;89
2024-03-17 01:00;89
2024-03-17 01:10;88
2024-03-17 01:20;86
2024-03-17 01:30;80
2024-03-17 01:40;85
2024-03-17 01:50;89
2024-03-17 02:00;90
2024-03-17 02:10;90
2024-03-17 02:20;93
2024-03-17 02:30;89
2024-03-17 02:40;85
2024-03-17 02:50;91
2024-03-17 03:00;97
2024-03-17 03:10;93
2024-03-17 03:20;95
2024-03-17 03:30;96
2024-03-17 03:40;97
2024-03-17 03:50;105
2024-03-17 04:00;110
2024-03-17 04:10;98
2024-03-17 04:20;93
2024-03-17 04:30;100
2024-03-17 04:40;100
2024-03-17 04:50;99
2024-03-17 05:00;99
2024-03-17 05:10;109
2024-03-17 05:20;116
2024-03-17 05:30;108
2024-03-17 05:40;102
2024-03-17 05:50;106
2024-03-17 06:00;105
2024-03-17 06:10;99
2024-03-17 06:20;104
2024-03-17 06:30;105
2024-03-17 06:40;102
2024-03-17 06:50;102
2024-03-17 07:00;92
2024-03-17 07:10;91
2024-03-17 07:20;98
2024-03-17 07:30;96
2024-03-17 07:40;93
2024-03-17 07:50;95
2024-03-17 08:00;95
2024-03-17 08:10;87
2024-03-17 08:20;87
2024-03-17 08:30;82
2024-03-17 08:40;79
2024-03-17 08:50;83
2024-03-17 09:00;82
2024-03-17 09:10;79
2024-03-17 09:20;83
2024-03-17 09:30;86
2024-03-17 09:40;75
2024-03-17 09:50;71
2024-03-17 10:00;73
2024-03-17 10:10;73
2024-03-17 10:20;69
2024-03-17 10:30;68
2024-03-17 10:40;68
2024-03-17 10:50;72
2024-03-17 11:00;71
2024-03-17 11:10;72
2024-03-17 11:20;75
2024-03-17 11:30;71
2024-03-17 11:40;71
2024-03-17 11:50;73
2024-03-17 12:00;72
2024-03-17 12:10;70
2024-03-17 12:20;73
2024-03-17 12:30;69
2024-03-17 12:40;65
2024-03-17 12:50;72
2024-03-17 13:00;72
2024-03-17 13:10;70
2024-03-17 13:20;74
2024-03-17 13:30;71
2024-03-17 13:40;69
2024-03-17 13:50;71
2024-03-17 14:00;73
2024-03-17 14:10;74
2024-03-17 14:20;76
2024-03-17 14:30;75
2024-03-17 14:40;72
2024-03-17 14:50;72
2024-03-17 15:00;67
2024-03-17 15:10;66
2024-03-17 15:20;71
2024-03-17 15:30;75
2024-03-17 15:40;71
2024-03-17 15:50;67
2024-03-17 16:00;70
2024-03-17 16:10;68
2024-03-17 16:20;64
2024-03-17 16:30;68
2024-03-17 16:40;71
2024-03-17 16:50;68
2024-03-17 17:00;67
2024-03-17 17:10;67
2024-03-17 17:20;71
2024-03-17 17:30;74
2024-03-17 17:40;71
2024-03-17 17:50;71
2024-03-17 18:00;69
2024-03-17 18:10;69
2024-03-17 18:20;71
2024-03-17 18:30;73
2024-03-17 18:40;74
2024-03-17 18:50;74
2024-03-17 19:00;72
2024-03-17 19:10;68
2024-03-17 19:20;67
2024-03-17 19:30;68
2024-03-17 19:40;67
2024-03-17 19:50;66
2024-03-17 20:00;64
2024-03-17 20:10;64
2024-03-17 20:20;67
2024-03-17 20:30;67
2024-03-17 20:40;63
2024-03-17 20:50;63
2024-03-17 21:00;66
2024-03-17 21:10;66
2024-03-17 21:20;65
2024-03-17 21:30;67
2024-03-17 21:40;65
2024-03-17 21:50;61
2024-03-17 22:00;62
2024-03-17 22:10;65
2024-03-17 22:20;67
2024-03-17 22:30;65
2024-03-17 22:40;67
2024-03-17 22:50;67
2024-03-17 23:00;62
2024-03-17 23:10;62
2024-03-17 23:20;62
2024-03-17 23:30;60
2024-03-17 23:40;62
2024-03-17 23:50;65
2024-03-18 00:00;64
2024-03-18 00:10;65
2024-03-18 00:20;67
2024-03-18 00:30;68
2024-03-18 00:40;71
2024-03-18 00:50;73
2024-03-18 01:00;78
2024-03-18 01:10;81
2024-03-18 01:20;79
2024-03-18 01:30;82
2024-03-18 01:40;79
2024-03-18 01:50;70
2024-03-18 02:00;70
2024-03-18 02:10;76
2024-03-18 02:20;75
2024-03-18 02:30;73
2024-03-18 02:40;73
2024-03-18 02:50;69
2024-03-18 03:00;65
2024-03-18 03:10;66
2024-03-18 03:20;65
2024-03-18 03:30;64
2024-03-18 03:40;68
2024-03-18 03:50;72
2024-03-18 04:00;70
2024-03-18 04:10;68
2024-03-18 04:20;66
2024-03-18 04:30;66
2024-03-18 04:40;65
2024-03-18 04:50;67
2024-03-18 05:00;67
2024-03-18 05:10;63
2024-03-18 05:20;64
2024-03-18 05:30;66
2024-03-18 05:40;62
2024-03-18 05:50;61
2024-03-18 06:00;60
2024-03-18 06:10;57
2024-03-18 06:20;56
2024-03-18 06:30;59
2024-03-18 06:40;60
2024-03-18 06:50;57
2024-03-18 07:00;55
2024-03-18 07:10;54
2024-03-18 07:20;52
2024-03-18 07:30;54
2024-03-18 07:40;52
2024-03-18 07:50;51
2024-03-18 08:00;56
2024-03-18 08:10;55
2024-03-18 08:20;52
2024-03-18 08:30;52
2024-03-18 08:40;51
2024-03-18 08:50;50
2024-03-18 09:00;48
2024-03-18 09:10;48
2024-03-18 09:20;48
2024-03-18 09:30;47
2024-03-18 09:40;46
2024-03-18 09:50;45
2024-03-18 10:00;46
2024-03-18 10:10;46
2024-03-18 10:20;45
2024-03-18 10:30;45
2024-03-18 10:40;45
2024-03-18 10:50;44
2024-03-18 11:00;43
2024-03-18 11:10;44
2024-03-18 11:20;48
2024-03-18 11:30;49
2024-03-18 11:40;45
2024-03-18 11:50;43
2024-03-18 12:00;43
2024-03-18 12:10;43
2024-03-18 12:20;41
2024-03-18 12:30;39
2024-03-18 12:40;41
2024-03-18 12:50;42
2024-03-18 13:00;41
2024-03-18 13:10;39
2024-03-18 13:20;36
2024-03-18 13:30;37
2024-03-18 13:40;36
2024-03-18 13:50;35
2024-03-18 14:00;35
2024-03-18 14:10;35
2024-03-18 14:20;32
2024-03-18 14:30;33
2024-03-18 14:40;35
2024-03-18 14:50;36
2024-03-18 15:00;35
2024-03-18 15:10;34
2024-03-18 15:20;34
2024-03-18 15:30;32
2024-03-18 15:40;33
2024-03-18 15:50;32
2024-03-18 16:00;32
2024-03-18 16:10;33
2024-03-18 16:20;32
2024-03-18 16:30;33
2024-03-18 16:40;33
2024-03-18 16:50;33
2024-03-18 17:00;35
2024-03-18 17:10;36
2024-03-18 17:20;35
2024-03-18 17:30;34
2024-03-18 17:40;34
2024-03-18 17:50;34
2024-03-18 18:00;33
2024-03-18 18:10;32
2024-03-18 18:20;33
2024-03-18 18:30;33
2024-03-18 18:40;35
2024-03-18 18:50;40
2024-03-18 19:00;40
2024-03-18 19:10;36
2024-03-18 19:20;34
2024-03-18 19:30;33
2024-03-18 19:40;34
2024-03-18 19:50;35
2024-03-18 20:00;34
2024-03-18 20:10;33
2024-03-18 20:20;31
2024-03-18 20:30;32
2024-03-18 20:40;33
2024-03-18 20:50;36
2024-03-18 21:00;46
2024-03-18 21:10;52
2024-03-18 21:20;55
2024-03-18 21:30;60
2024-03-18 21:40;63
2024-03-18 21:50;60
2024-03-18 22:00;63
2024-03-18 22:10;67
2024-03-18 22:20;69
2024-03-18 22:30;69
2024-03-18 22:40;73
2024-03-18 22:50;75
2024-03-18 23:00;76
2024-03-18 23:10;76
2024-03-18 23:20;73
2024-03-18 23:30;75
2024-03-18 23:40;74
2024-03-18 23:50;74
2024-03-19 00:00;73
2024-03-19 00:10;75
2024-03-19 00:20;73
2024-03-19 00:30;71
2024-03-19 00:40;74
2024-03-19 00:50;73
2024-03-19 01:00;70
2024-03-19 01:10;71
2024-03-19 01:20;70
2024-03-19 01:30;66
2024-03-19 01:40;68
2024-03-19 01:50;68
2024-03-19 02:00;66
2024-03-19 02:10;65
2024-03-19 02:20;67
2024-03-19 02:30;67
2024-03-19 02:40;72
2024-03-19 02:50;79
2024-03-19 03:00;80
2024-03-19 03:10;80
2024-03-19 03:20;77
2024-03-19 03:30;74
2024-03-19 03:40;76
2024-03-19 03:50;73
2024-03-19 04:00;70
2024-03-19 04:10;72
2024-03-19 04:20;70
2024-03-19 04:30;66
2024-03-19 04:40;69
2024-03-19 04:50;69
2024-03-19 05:00;72
2024-03-19 05:10;73
2024-03-19 05:20;67
2024-03-19 05:30;68
2024-03-19 05:40;72
2024-03-19 05:50;69
2024-03-19 06:00;67
2024-03-19 06:10;67
2024-03-19 06:20;66
2024-03-19 06:30;67
2024-03-19 06:40;66
2024-03-19 06:50;63
2024-03-19 07:00;62
2024-03-19 07:10;61
2024-03-19 07:20;57
2024-03-19 07:30;56
2024-03-19 07:40;57
2024-03-19 07:50;57
2024-03-19 08:00;59
2024-03-19 08:10;60
2024-03-19 08:20;59
2024-03-19 08:30;55
2024-03-19 08:40;56
2024-03-19 08:50;58
2024-03-19 09:00;58
2024-03-19 09:10;56
2024-03-19 09:20;55
2024-03-19 09:30;57
2024-03-19 09:40;55
2024-03-19 09:50;52
2024-03-19 10:00;52
2024-03-19 10:10;53
2024-03-19 10:20;56
2024-03-19 10:30;58
2024-03-19 10:40;55
2024-03-19 10:50;57
2024-03-19 11:00;57
2024-03-19 11:10;53
2024-03-19 11:20;54
2024-03-19 11:30;53
2024-03-19 11:40;54
2024-03-19 11:50;54
2024-03-19 12:00;52
2024-03-19 12:10;54
2024-03-19 12:20;53
2024-03-19 12:30;50
2024-03-19 12:40;50
2024-03-19 12:50;50
2024-03-19 13:00;48
2024-03-19 13:10;45
2024-03-19 13:20;45
2024-03-19 13:30;49
2024-03-19 13:40;49
2024-03-19 13:50;47
2024-03-19 14:00;49
2024-03-19 14:10;49
2024-03-19 14:20;51
2024-03-19 14:30;53
2024-03-19 14:40;54
2024-03-19 14:50;53
2024-03-19 15:00;54
2024-03-19 15:10;55
2024-03-19 15:20;58
2024-03-19 15:30;60
2024-03-19 15:40;59
2024-03-19 15:50;55
2024-03-19 16:00;56
2024-03-19 16:10;58
2024-03-19 16:20;61
2024-03-19 16:30;64
2024-03-19 16:40;61
2024-03-19 16:50;63
2024-03-19 17:00;67
2024-03-19 17:10;70
2024-03-19 17:20;72
2024-03-19 17:30;70
2024-03-19 17:40;74
2024-03-19 17:50;80
2024-03-19 18:00;82
2024-03-19 18:10;76
2024-03-19 18:20;72
2024-03-19 18:30;73
2024-03-19 18:40;72
2024-03-19 18:50;72
2024-03-19 19:00;69
2024-03-19 19:10;69
2024-03-19 19:20;72
2024-03-19 19:30;71
2024-03-19 19:40;73
2024-03-19 19:50;73
2024-03-19 20:00;73
2024-03-19 20:10;72
2024-03-19 20:20;72
2024-03-19 20:30;69
2024-03-19 20:40;70
2024-03-19 20:50;73
2024-03-19 21:00;74
2024-03-19 21:10;71
2024-03-19 21:20;66
2024-03-19 21:30;66
2024-03-19 21:40;63
2024-03-19 21:50;63
2024-03-19 22:00;63
2024-03-19 22:10;65
2024-03-19 22:20;68
2024-03-19 22:30;61
2024-03-19 22:40;64
2024-03-19 22:50;63
2024-03-19 23:00;61
2024-03-19 23:10;66
2024-03-19 23:20;65
2024-03-19 23:30;60
2024-03-19 23:40;64
2024-03-19 23:50;65
2024-03-20 00:00;63
2024-03-20 00:10;62
2024-03-20 00:20;61
2024-03-20 00:30;58
2024-03-20 00:40;53
2024-03-20 00:50;62
2024-03-20 01:00;52
2024-03-20 01:10;54
2024-03-20 01:20;55
2024-03-20 01:30;55
2024-03-20 01:40;56
2024-03-20 01:50;59
2024-03-20 02:00;55
2024-03-20 02:10;52
2024-03-20 02:20;50
2024-03-20 02:30;48
2024-03-20 02:40;46
2024-03-20 02:50;44
2024-03-20 03:00;45
2024-03-20 03:10;45
2024-03-20 03:20;43
2024-03-20 03:30;41
2024-03-20 03:40;40
2024-03-20 03:50;39
2024-03-20 04:00;38
2024-03-20 04:10;38
2024-03-20 04:20;37
2024-03-20 04:30;35
2024-03-20 04:40;36
2024-03-20 04:50;36
2024-03-20 05:00;36
2024-03-20 05:10;34
2024-03-20 05:20;34
2024-03-20 05:30;34
2024-03-20 05:40;31
2024-03-20 05:50;30
2024-03-20 06:00;32
2024-03-20 06:10;33
2024-03-20 06:20;33
2024-03-20 06:30;31
2024-03-20 06:40;31
2024-03-20 06:50;33
2024-03-20 07:00;32
2024-03-20 07:10;30
2024-03-20 07:20;30
2024-03-20 07:30;31
2024-03-20 07:40;31
2024-03-20 07:50;32
2024-03-20 08:00;32
2024-03-20 08:10;32
2024-03-20 08:20;33
2024-03-20 08:30;31
2024-03-20 08:40;31
2024-03-20 08:50;30
2024-03-20 09:00;29
2024-03-20 09:10;30
2024-03-20 09:20;29
2024-03-20 09:30;27
2024-03-20 09:40;28
2024-03-20 09:50;29
2024-03-20 10:00;28
2024-03-20 10:10;27
2024-03-20 10:20;28
2024-03-20 10:30;28
2024-03-20 10:40;29
2024-03-20 10:50;27
2024-03-20 11:00;26
2024-03-20 11:10;26
2024-03-20 11:20;26
2024-03-20 11:30;27
2024-03-20 11:40;27
2024-03-20 11:50;28
2024-03-20 12:00;28
2024-03-20 12:10;29
2024-03-20 12:20;27
2024-03-20 12:30;27
2024-03-20 12:40;27
2024-03-20 12:50;25
2024-03-20 13:00;25
2024-03-20 13:10;24
2024-03-20 13:20;23
2024-03-20 13:30;24
2024-03-20 13:40;24
2024-03-20 13:50;23
2024-03-20 14:00;24
2024-03-20 14:10;25
2024-03-20 14:20;25
2024-03-20 14:30;25
2024-03-20 14:40;25
2024-03-20 14:50;23
2024-03-20 15:00;24
2024-03-20 15:10;24
2024-03-20 15:20;24
2024-03-20 15:30;24
2024-03-20 15:40;24
2024-03-20 15:50;25
2024-03-20 16:00;26
2024-03-20 16:10;26
2024-03-20 16:20;25
2024-03-20 16:30;26
2024-03-20 16:40;28
2024-03-20 16:50;27
2024-03-20 17:00;23
2024-03-20 17:10;21
2024-03-20 17:20;22
2024-03-20 17:30;22
2024-03-20 17:40;24
2024-03-20 17:50;25
2024-03-20 18:00;23
2024-03-20 18:10;22
2024-03-20 18:20;22
2024-03-20 18:30;22
2024-03-20 18:40;25
2024-03-20 18:50;26
2024-03-20 19:00;24
2024-03-20 19:10;25
2024-03-20 19:20;25
2024-03-20 19:30;25
2024-03-20 19:40;26
2024-03-20 19:50;25
2024-03-20 20:00;24
2024-03-20 20:10;24
2024-03-20 20:20;24
2024-03-20 20:30;25
2024-03-20 20:40;25
2024-03-20 20:50;24
2024-03-20 21:00;24
2024-03-20 21:10;24
2024-03-20 21:20;24
2024-03-20 21:30;24
2024-03-20 21:40;23
2024-03-20 21:50;23
2024-03-20 22:00;24
2024-03-20 22:10;24
2024-03-20 22:20;25
2024-03-20 22:30;26
2024-03-20 22:40;25
2024-03-20 22:50;24
2024-03-20 23:00;24
2024-03-20 23:10;24
2024-03-20 23:20;27
2024-03-20 23:30;29
2024-03-20 23:40;29
2024-03-20 23:50;28
2024-03-21 00:00;28
2024-03-21 00:10;29
2024-03-21 00:20;27
2024-03-21 00:30;26
2024-03-21 00:40;27
2024-03-21 00:50;29
2024-03-21 01:00;31
2024-03-21 01:10;30
2024-03-21 01:20;29
2024-03-21 01:30;31
2024-03-21 01:40;36
2024-03-21 01:50;39
2024-03-21 02:00;42
2024-03-21 02:10;47
2024-03-21 02:20;55
2024-03-21 02:30;58
2024-03-21 02:40;60
2024-03-21 02:50;63
2024-03-21 03:00;61
2024-03-21 03:10;60
2024-03-21 03:20;60
2024-03-21 03:30;67
2024-03-21 03:40;70
2024-03-21 03:50;68
2024-03-21 04:00;71
2024-03-21 04:10;72
2024-03-21 04:20;68
2024-03-21 04:30;68
2024-03-21 04:40;68
2024-03-21 04:50;71
2024-03-21 05:00;78
2024-03-21 05:10;74
2024-03-21 05:20;69
2024-03-21 05:30;71
2024-03-21 05:40;75
2024-03-21 05:50;76
2024-03-21 06:00;73
2024-03-21 06:10;74
2024-03-21 06:20;78
2024-03-21 06:30;77
2024-03-21 06:40;76
2024-03-21 06:50;72
2024-03-21 07:00;69
2024-03-21 07:10;70
2024-03-21 07:20;73
2024-03-21 07:30;73
2024-03-21 07:40;73
2024-03-21 07:50;74
2024-03-21 08:00;70
2024-03-21 08:10;69
2024-03-21 08:20;70
2024-03-21 08:30;72
2024-03-21 08:40;78
2024-03-21 08:50;75
2024-03-21 09:00;68
2024-03-21 09:10;70
2024-03-21 09:20;70
2024-03-21 09:30;68
2024-03-21 09:40;66
2024-03-21 09:50;66
2024-03-21 10:00;66
2024-03-21 10:10;69
2024-03-21 10:20;70
2024-03-21 10:30;70
2024-03-21 10:40;68
2024-03-21 10:50;66
2024-03-21 11:00;64
2024-03-21 11:10;62
2024-03-21 11:20;65
2024-03-21 11:30;65
2024-03-21 11:40;63
2024-03-21 11:50;62
2024-03-21 12:00;60
2024-03-21 12:10;61
2024-03-21 12:20;59
2024-03-21 12:30;60
2024-03-21 12:40;62
2024-03-21 12:50;58
2024-03-21 13:00;55
2024-03-21 13:10;57
2024-03-21 13:20;60
2024-03-21 13:30;59
2024-03-21 13:40;55
2024-03-21 13:50;53
2024-03-21 14:00;52
2024-03-21 14:10;51
2024-03-21 14:20;54
2024-03-21 14:30;60
2024-03-21 14:40;58
2024-03-21 14:50;54
2024-03-21 15:00;53
2024-03-21 15:10;53
2024-03-21 15:20;57
2024-03-21 15:30;58
2024-03-21 15:40;56
2024-03-21 15:50;57
2024-03-21 16:00;56
2024-03-21 16:10;55
2024-03-21 16:20;55
2024-03-21 16:30;55
2024-03-21 16:40;55
2024-03-21 16:50;56
2024-03-21 17:00;57
2024-03-21 17:10;56
2024-03-21 17:20;57
2024-03-21 17:30;56
2024-03-21 17:40;56
2024-03-21 17:50;59
2024-03-21 18:00;58
2024-03-21 18:10;54
2024-03-21 18:20;55
2024-03-21 18:30;57
2024-03-21 18:40;60
2024-03-21 18:50;63
2024-03-21 19:00;65
2024-03-21 19:10;64
2024-03-21 19:20;65
2024-03-21 19:30;72
2024-03-21 19:40;75
2024-03-21 19:50;77
2024-03-21 20:00;80
2024-03-21 20:10;78
2024-03-21 20:20;81
2024-03-21 20:30;81
2024-03-21 20:40;81
2024-03-21 20:50;87
2024-03-21 21:00;87
2024-03-21 21:10;83
2024-03-21 21:20;82
2024-03-21 21:30;82
2024-03-21 21:40;87
2024-03-21 21:50;87
2024-03-21 22:00;89
2024-03-21 22:10;93
2024-03-21 22:20;88
2024-03-21 22:30;85
2024-03-21 22:40;92
2024-03-21 22:50;91
2024-03-21 23:00;89
2024-03-21 23:10;94
2024-03-21 23:20;93
2024-03-21 23:30;94
2024-03-21 23:40;100
2024-03-21 23:50;99
2024-03-22 00:00;104
2024-03-22 00:10;111
2024-03-22 00:20;109
2024-03-22 00:30;112
2024-03-22 00:40;120
2024-03-22 00:50;125
2024-03-22 01:00;121
2024-03-22 01:10;123
2024-03-22 01:20;124
2024-03-22 01:30;117
2024-03-22 01:40;116
2024-03-22 01:50;124
2024-03-22 02:00;128
2024-03-22 02:10;132
2024-03-22 02:20;133
2024-03-22 02:30;136
2024-03-22 02:40;138
2024-03-22 02:50;137
2024-03-22 03:00;139
2024-03-22 03:10;136
2024-03-22 03:20;136
2024-03-22 03:30;135
2024-03-22 03:40;139
2024-03-22 03:50;145
2024-03-22 04:00;143
2024-03-22 04:10;136
2024-03-22 04:20;132
2024-03-22 04:30;133
2024-03-22 04:40;125
2024-03-22 04:50;133
2024-03-22 05:00;144
2024-03-22 05:10;139
2024-03-22 05:20;134
2024-03-22 05:30;132
2024-03-22 05:40;132
2024-03-22 05:50;137
2024-03-22 06:00;145
2024-03-22 06:10;137
2024-03-22 06:20;145
2024-03-22 06:30;143
2024-03-22 06:40;140
2024-03-22 06:50;146
2024-03-22 07:00;141
2024-03-22 07:10;140
2024-03-22 07:20;136
2024-03-22 07:30;139
2024-03-22 07:40;132
2024-03-22 07:50;128
2024-03-22 08:00;140
2024-03-22 08:10;142
2024-03-22 08:20;141
2024-03-22 08:30;141
2024-03-22 08:40;140
2024-03-22 08:50;140
2024-03-22 09:00;144
2024-03-22 09:10;152
2024-03-22 09:20;149
2024-03-22 09:30;136
2024-03-22 09:40;131
2024-03-22 09:50;162
2024-03-22 10:00;129
2024-03-22 10:10;133
2024-03-22 10:20;135
2024-03-22 10:30;138
2024-03-22 10:40;139